Regional Weather Roundup
Issued by NWS

Home | Current Version | Previous Version | Text Only | Print | Product List | Glossary Off
Versions: 1 2 3 4 5 6 7 8 9 10 11 12 13 14 15 16 17 18 19 20 21 22 23 24 25 26 27 28 29 30 31 32 33 34 35 36 37 38 39 40 41 42 43 44 45 46 47 48 49 50

000
ASUS43 KTOP 100708
RWRKS

WEATHER ROUNDUP FOR KANSAS
NATIONAL WEATHER SERVICE GOODLAND KS
100 AM CST SUN DEC 10 2017

NOTE:  "FAIR" INDICATES FEW OR NO CLOUDS BELOW 12,000 FEET WITH NO
SIGNIFICANT WEATHER AND/OR OBSTRUCTIONS TO VISIBILITY.

KSZ001>006-013>018-027>032-041>047-100800-
NORTHWEST KANSAS

CITY           SKY/WX    TMP DP  RH WIND       PRES   REMARKS
GOODLAND       CLEAR     34   7  32 W14       30.31S WCI  25
HAYS           CLEAR     34  13  41 W12       30.22F WCI  25
HILL CITY      CLEAR     42  14  32 W13       30.23S
RUSSELL        CLEAR     31  17  56 W9        30.18F
$$

KSZ061>065-074>080-084>089-100800-
SOUTHWEST KANSAS

CITY           SKY/WX    TMP DP  RH WIND       PRES   REMARKS
DODGE CITY     CLEAR     33  12  41 W14       30.29S WCI  23
ELKHART        CLEAR     39  12  33 W13       30.36F WCI  31
GARDEN CITY    CLOUDY    31  10  41 NW12      30.31F WCI  22
GREAT BEND     CLEAR     36  14  40 W14       30.22F WCI  27
LIBERAL        CLEAR     31  14  49 W13       30.34S WCI  21
PRATT          CLEAR     35  13  40 W13       30.25S WCI  27
$$

KSZ066>073-081>083-090>101-100800-
SOUTHEAST KANSAS

CITY           SKY/WX    TMP DP  RH WIND       PRES   REMARKS
CHANUTE        CLOUDY    27  19  72 S7        30.21F
COFFEYVILLE    CLOUDY    26  19  74 S3        30.25F
HUTCHINSON     CLOUDY    25  17  72 W3        30.20F
MEDICINE LODGE   N/A     29  17  61 CALM      30.26F
NEWTON         CLOUDY    34  20  56 SW10      30.20F WCI  26
PARSONS        CLOUDY    20  16  84 CALM      30.24F
WICHITA INTL   CLOUDY    29  20  69 S6        30.22F
WICHITA JABRA  CLOUDY    39  23  52 SW13      30.21F WCI  31
WICHITA MCCONL CLOUDY    34  20  56 SW6       30.22F
WINFIELD       CLOUDY    27  19  72 CALM      30.26S
$$

KSZ007>012-019>026-033>040-048>060-102>105-100800-
NORTHEAST KANSAS

CITY           SKY/WX    TMP DP  RH WIND       PRES   REMARKS
CONCORDIA      CLOUDY    37  19  48 W14       30.12F WCI  28
EMPORIA        CLOUDY    30  21  69 SW9       30.16F
LAWRENCE       CLOUDY    20  16  84 E3        30.14F
MANHATTAN      CLEAR     32  21  64 SW9       30.13F
MARYSVILLE     CLOUDY    32  21  64 SW9       30.09S
OLATHE IND     CLOUDY    25  18  74 S6        30.15F
OLATHE EXE     CLOUDY    26  20  77 S6        30.14F
SALINA         CLOUDY    36  20  52 SW12      30.16F WCI  28
TOPEKA BILLARD CLOUDY    27  19  72 S3        30.13F
TOPEKA FORBES  CLOUDY    29  20  69 S9        30.12F
$$




USA.gov is the U.S. government's official web portal to all federal, state and local government web resources and services.